When you browse on this site, cookies collect data to enhance your experience and personalize the content and advertising you see.
Visit our Privacy Policy to learn more. By continuing to use the site, you agree to this use of cookies and data.
  • In Deutschland
  • Länderverzeichnis
  • Für 7 Tage
  • Wassertemperatur
  • Satellitenkarten
  • Wetterkarte
  • Widgets
  • user-avatar
    Anmelden

    Stündliche Wetter Julara

    Heute, 23 Februar, Samstag

    Zeit Temperatur Niederschläge Wind Luftdruck Luftfeuchtigkeit
    00:00 +29°C° 0 mm 5 m/S 718 mmHg 16%
    01:00 +28°C° 0 mm 5 m/S 718 mmHg 17%
    02:00 +27°C° 0 mm 5 m/S 718 mmHg 17%
    03:00 +26°C° 0 mm 4 m/S 718 mmHg 19%
    04:00 +25°C° 0 mm 4 m/S 718 mmHg 19%
    05:00 +25°C° 0 mm 4 m/S 718 mmHg 20%
    06:00 +23°C° 0 mm 4 m/S 718 mmHg 20%
    07:00 +27°C° 0 mm 5 m/S 718 mmHg 17%
    08:00 +29°C° 0 mm 6 m/S 718 mmHg 14%
    09:00 +34°C° 0 mm 6 m/S 719 mmHg 10%
    10:00 +35°C° 0 mm 6 m/S 719 mmHg 9%
    11:00 +36°C° 0 mm 6 m/S 718 mmHg 8%
    12:00 +38°C° 0 mm 6 m/S 718 mmHg 7%
    13:00 +39°C° 0 mm 5 m/S 718 mmHg 7%
    14:00 +40°C° 0 mm 5 m/S 717 mmHg 6%
    15:00 +40°C° 0 mm 5 m/S 717 mmHg 6%
    16:00 +40°C° 0 mm 5 m/S 717 mmHg 7%
    17:00 +40°C° 0 mm 5 m/S 717 mmHg 7%
    18:00 +39°C° 0 mm 5 m/S 717 mmHg 8%
    19:00 +36°C° 0 mm 5 m/S 717 mmHg 9%
    20:00 +34°C° 0 mm 5 m/S 717 mmHg 11%
    21:00 +32°C° 0 mm 5 m/S 717 mmHg 13%
    22:00 +32°C° 0 mm 5 m/S 717 mmHg 14%
    23:00 +30°C° 0 mm 5 m/S 718 mmHg 15%

    Morgen, 24 Februar, Sonntag

    Zeit Temperatur Niederschläge Wind Luftdruck Luftfeuchtigkeit
    00:00 +29°C° 0 mm 5 m/S 718 mmHg 16%
    01:00 +29°C° 0 mm 5 m/S 718 mmHg 16%
    02:00 +28°C° 0 mm 5 m/S 718 mmHg 17%
    03:00 +27°C° 0 mm 5 m/S 717 mmHg 18%
    04:00 +27°C° 0 mm 5 m/S 718 mmHg 18%
    05:00 +26°C° 0 mm 5 m/S 718 mmHg 19%
    06:00 +26°C° 0 mm 5 m/S 718 mmHg 19%
    07:00 +28°C° 0 mm 6 m/S 718 mmHg 18%
    08:00 +32°C° 0 mm 7 m/S 719 mmHg 16%
    09:00 +35°C° 0 mm 8 m/S 719 mmHg 14%
    10:00 +36°C° 0 mm 7 m/S 719 mmHg 13%
    11:00 +38°C° 0 mm 6 m/S 718 mmHg 11%
    12:00 +39°C° 0 mm 5 m/S 718 mmHg 9%
    13:00 +40°C° 0 mm 5 m/S 718 mmHg 9%
    14:00 +40°C° 0 mm 5 m/S 717 mmHg 8%
    15:00 +41°C° 0 mm 4 m/S 717 mmHg 8%
    16:00 +41°C° 0 mm 5 m/S 717 mmHg 8%
    17:00 +40°C° 0 mm 5 m/S 717 mmHg 8%
    18:00 +40°C° 0 mm 5 m/S 717 mmHg 8%
    19:00 +37°C° 0 mm 5 m/S 717 mmHg 9%
    20:00 +35°C° 0 mm 5 m/S 717 mmHg 11%
    21:00 +33°C° 0 mm 5 m/S 718 mmHg 12%
    22:00 +32°C° 0 mm 5 m/S 718 mmHg 13%
    23:00 +32°C° 0 mm 6 m/S 718 mmHg 13%

    übermorgen, 25 Februar, Montag

    Zeit Temperatur Niederschläge Wind Luftdruck Luftfeuchtigkeit
    00:00 +30°C° 0 mm 6 m/S 718 mmHg 14%
    01:00 +29°C° 0 mm 6 m/S 718 mmHg 14%
    02:00 +29°C° 0 mm 6 m/S 718 mmHg 15%
    03:00 +28°C° 0 mm 5 m/S 718 mmHg 15%
    04:00 +28°C° 0 mm 5 m/S 718 mmHg 16%
    05:00 +27°C° 0 mm 5 m/S 718 mmHg 17%
    06:00 +27°C° 0 mm 5 m/S 718 mmHg 18%
    07:00 +29°C° 0 mm 5 m/S 719 mmHg 19%
    08:00 +33°C° 0 mm 6 m/S 719 mmHg 19%
    09:00 +35°C° 0 mm 6 m/S 720 mmHg 19%
    10:00 +36°C° 0 mm 5 m/S 720 mmHg 17%
    11:00 +38°C° 0 mm 4 m/S 720 mmHg 16%
    12:00 +39°C° 0 mm 3 m/S 719 mmHg 14%
    13:00 +41°C° 0 mm 4 m/S 719 mmHg 13%
    14:00 +41°C° 0 mm 4 m/S 718 mmHg 12%
    15:00 +42°C° 0 mm 4 m/S 717 mmHg 11%
    16:00 +42°C° 0 mm 4 m/S 717 mmHg 10%
    17:00 +41°C° 0 mm 5 m/S 717 mmHg 10%
    18:00 +41°C° 0 mm 5 m/S 717 mmHg 10%
    19:00 +40°C° 0 mm 5 m/S 718 mmHg 11%
    20:00 +37°C° 0 mm 5 m/S 719 mmHg 12%
    21:00 +36°C° 0 mm 4 m/S 719 mmHg 13%
    22:00 +35°C° 0 mm 5 m/S 719 mmHg 14%
    23:00 +33°C° 0 mm 5 m/S 719 mmHg 15%

    26 Februar, Dienstag

    Zeit Temperatur Niederschläge Wind Luftdruck Luftfeuchtigkeit
    00:00 +32°C° 0 mm 5 m/S 719 mmHg 16%
    01:00 +30°C° 0 mm 5 m/S 719 mmHg 17%
    02:00 +29°C° 0 mm 5 m/S 718 mmHg 17%
    03:00 +29°C° 0 mm 5 m/S 718 mmHg 18%
    04:00 +28°C° 0 mm 4 m/S 718 mmHg 19%
    05:00 +28°C° 0 mm 4 m/S 719 mmHg 19%
    06:00 +27°C° 0 mm 4 m/S 719 mmHg 20%
    07:00 +29°C° 0 mm 5 m/S 719 mmHg 18%
    08:00 +33°C° 0 mm 5 m/S 720 mmHg 16%
    09:00 +35°C° 0 mm 6 m/S 720 mmHg 14%
    10:00 +37°C° 0 mm 5 m/S 720 mmHg 13%
    11:00 +38°C° 0 mm 4 m/S 720 mmHg 12%
    12:00 +39°C° 0 mm 3 m/S 720 mmHg 11%
    13:00 +40°C° 0 mm 3 m/S 719 mmHg 10%
    14:00 +42°C° 0 mm 3 m/S 718 mmHg 10%
    15:00 +42°C° 0 mm 4 m/S 717 mmHg 9%
    16:00 +42°C° 0 mm 4 m/S 717 mmHg 9%
    17:00 +42°C° 0 mm 5 m/S 717 mmHg 9%
    18:00 +41°C° 0 mm 5 m/S 717 mmHg 10%
    19:00 +39°C° 0 mm 7 m/S 718 mmHg 15%
    20:00 +38°C° 0 mm 8 m/S 718 mmHg 20%
    21:00 +35°C° 0 mm 9 m/S 719 mmHg 25%
    22:00 +34°C° 0 mm 8 m/S 719 mmHg 25%
    23:00 +33°C° 0 mm 7 m/S 719 mmHg 26%

    27 Februar, Mittwoch

    Zeit Temperatur Niederschläge Wind Luftdruck Luftfeuchtigkeit
    00:00 +32°C° 0 mm 6 m/S 719 mmHg 27%
    01:00 +32°C° 0 mm 5 m/S 719 mmHg 28%
    02:00 +30°C° 0 mm 4 m/S 719 mmHg 29%
    03:00 +29°C° 0 mm 3 m/S 718 mmHg 30%
    04:00 +28°C° 0 mm 3 m/S 719 mmHg 30%
    05:00 +28°C° 0 mm 3 m/S 719 mmHg 30%
    06:00 +27°C° 0 mm 2 m/S 719 mmHg 31%
    07:00 +30°C° 0 mm 3 m/S 719 mmHg 27%
    08:00 +33°C° 0 mm 4 m/S 720 mmHg 23%
    09:00 +35°C° 0 mm 5 m/S 720 mmHg 20%
    10:00 +36°C° 0 mm 5 m/S 720 mmHg 17%
    11:00 +39°C° 0 mm 5 m/S 720 mmHg 15%
    12:00 +40°C° 0 mm 4 m/S 719 mmHg 12%
    13:00 +41°C° 0 mm 5 m/S 719 mmHg 11%
    14:00 +42°C° 0 mm 5 m/S 718 mmHg 9%
    15:00 +42°C° 0 mm 5 m/S 717 mmHg 8%
    16:00 +42°C° 0 mm 6 m/S 717 mmHg 8%
    17:00 +41°C° 0 mm 7 m/S 717 mmHg 8%
    18:00 +41°C° 0 mm 7 m/S 717 mmHg 8%
    19:00 +39°C° 0 mm 7 m/S 718 mmHg 9%
    20:00 +36°C° 0 mm 6 m/S 718 mmHg 11%
    21:00 +34°C° 0 mm 5 m/S 718 mmHg 12%
    22:00 +34°C° 0 mm 5 m/S 718 mmHg 13%
    23:00 +33°C° 0 mm 6 m/S 718 mmHg 14%

    28 Februar, Donnerstag

    Zeit Temperatur Niederschläge Wind Luftdruck Luftfeuchtigkeit
    00:00 +32°C° 0 mm 6 m/S 718 mmHg 15%
    01:00 +32°C° 0 mm 6 m/S 718 mmHg 16%
    02:00 +30°C° 0 mm 6 m/S 718 mmHg 17%
    03:00 +30°C° 0 mm 6 m/S 718 mmHg 17%
    04:00 +29°C° 0 mm 5 m/S 718 mmHg 19%
    05:00 +28°C° 0 mm 5 m/S 718 mmHg 21%
    06:00 +28°C° 0 mm 4 m/S 718 mmHg 23%
    07:00 +30°C° 0 mm 5 m/S 719 mmHg 22%
    08:00 +34°C° 0 mm 5 m/S 719 mmHg 21%
    09:00 +36°C° 0 mm 6 m/S 720 mmHg 20%
    10:00 +39°C° 0 mm 6 m/S 719 mmHg 17%
    11:00 +40°C° 0 mm 6 m/S 719 mmHg 15%
    12:00 +41°C° 0 mm 5 m/S 718 mmHg 12%
    13:00 +42°C° 0 mm 5 m/S 718 mmHg 11%
    14:00 +42°C° 0 mm 5 m/S 717 mmHg 10%
    15:00 +43°C° 0 mm 5 m/S 717 mmHg 8%
    16:00 +42°C° 0 mm 5 m/S 717 mmHg 8%
    17:00 +42°C° 0 mm 6 m/S 717 mmHg 8%
    18:00 +41°C° 0 mm 6 m/S 717 mmHg 8%
    19:00 +40°C° 0 mm 6 m/S 717 mmHg 10%
    20:00 +38°C° 0 mm 6 m/S 717 mmHg 12%
    21:00 +35°C° 0 mm 5 m/S 718 mmHg 14%
    22:00 +34°C° 0 mm 6 m/S 718 mmHg 14%
    23:00 +33°C° 0 mm 6 m/S 718 mmHg 15%
    Mehr zeigen